This demonstration page uses our WeatherBlox Daily Observations layout. Learn more.

Left ArrowRight Arrow

41.86663, -103.66717

Hourly Observations for January 22, 2016

Temp ( °F °C ) Dew Point ( °F °C ) Humidity (%) Winds ( mph kmh ) Pressure ( in mb ) Visibility ( mi km ) Precip ( " mm )
12:53 am 00:53 Clear 23 -5 18 -7.8 81 81 N N/A 30.31 1027 10 16 N/A
1:53 am 01:53 Clear 21 -6.1 17 -8.3 85 85 N N/A 30.31 1026 10 16 N/A
2:53 am 02:53 Clear 20 -6.7 16 -8.9 85 85 N N/A 30.32 1027 10 16 N/A
3:53 am 03:53 Mostly Cloudy 20 -6.7 16 -8.9 85 85 N N/A 30.31 1026 10 16 N/A
4:53 am 04:53 Mostly Clear 21 -6.1 16 -8.9 81 81 ESE 3 6 30.32 1027 10 16 N/A
5:53 am 05:53 Mostly Cloudy 21 -6.1 17 -8.3 85 85 SE 3 6 30.32 1027 10 16 N/A
6:53 am 06:53 Clear 20 -6.7 17 -8.3 89 89 SE 5 7 30.34 1027 10 16 N/A
7:53 am 07:53 Sunny 20 -6.7 17 -8.3 89 89 SSE 3 6 30.34 1028 10 16 N/A
8:53 am 08:53 Sunny 21 -6.1 18 -7.8 88 88 ESE 8 13 30.35 1028 10 16 N/A
9:53 am 09:53 Sunny 23 -5 19 -7.2 85 85 ESE 8 13 30.35 1028 10 16 N/A
10:53 am 10:53 Sunny 24 -4.4 20 -6.7 84 84 ESE 8 13 30.34 1028 10 16 N/A
11:53 am 11:53 Sunny 27 -2.8 23 -5 85 85 ESE 9 15 30.28 1026 10 16 N/A
12:53 pm 12:53 Sunny 30 -1.1 25 -3.9 82 82 ESE 9 15 30.24 1024 10 16 N/A
1:53 pm 13:53 Sunny 32 undefined 26 -3.3 79 79 ESE 10 17 30.21 1023 10 16 N/A
2:53 pm 14:53 Sunny 34 1.1 27 -2.8 76 76 ESE 10 17 30.19 1022 10 16 N/A
3:53 pm 15:53 Sunny 34 1.1 27 -2.8 76 76 ESE 10 17 30.18 1022 10 16 N/A
4:53 pm 16:53 Sunny 32 undefined 27 -2.8 82 82 E 9 15 30.17 1022 10 16 N/A
5:53 pm 17:53 Clear 31 -0.6 27 -2.8 85 85 SE 8 13 30.17 1022 10 16 N/A
6:53 pm 18:53 Clear 29 -1.7 26 -3.3 89 89 E 8 13 30.16 1022 10 16 N/A
7:53 pm 19:53 Clear 28 -2.2 25 -3.9 88 88 E 8 13 30.16 1021 10 16 N/A
8:53 pm 20:53 Clear 27 -2.8 24 -4.4 89 89 ESE 8 13 30.14 1021 10 16 N/A
9:53 pm 21:53 Clear 29 -1.7 25 -3.9 85 85 E 9 15 30.11 1020 10 16 N/A
10:53 pm 22:53 Clear 29 -1.7 25 -3.9 85 85 E 8 13 30.09 1019 10 16 N/A
11:53 pm 23:53 Clear 27 -2.8 22 -5.6 81 81 N N/A 30.08 1019 10 16 N/A

Powered by AerisWeather